DK8SN Weather Reports


Display with metric or nautical units.
time (UTC)temp
F
wind
direction
speed
MPH
gust
MPH
rain 1hr
in
rain 24hr
in
rain mn
in
humidity
%
barometer
mb
20260506033104 44 0 0.0 0.0 0.00 0.01 0.00 99 1006.2
20260506033006 44 0 0.0 0.0 0.00 0.01 0.00 99 1006.3
20260506032905 44 0 0.0 0.0 0.00 0.01 0.00 99 1006.3
20260506032704 44 0 0.0 0.0 0.00 0.01 0.00 99 1006.2
20260506032605 44 0 0.0 0.0 0.00 0.01 0.00 99 1006.3
20260506032405 44 0 0.0 0.0 0.00 0.01 0.00 99 1006.5
20260506032306 44 0 0.0 0.0 0.00 0.01 0.00 99 1006.4
20260506032205 44 0 0.0 0.0 0.00 0.01 0.00 99 1006.4
20260506032105 44 0 0.0 0.0 0.00 0.01 0.00 99 1006.4
20260506032005 44 0 0.0 0.0 0.00 0.01 0.00 99 1006.4
20260506031904 44 0 0.0 0.0 0.00 0.01 0.00 99 1006.4
20260506031705 44 0 0.0 0.0 0.00 0.01 0.00 99 1006.4
20260506031604 44 0 0.0 0.0 0.00 0.01 0.00 99 1006.3
20260506031504 44 0 0.0 0.0 0.00 0.01 0.00 99 1006.4
20260506031405 44 0 0.0 0.0 0.00 0.01 0.00 99 1006.3
20260506031305 44 0 0.0 0.0 0.00 0.01 0.00 99 1006.4
20260506031205 44 0 0.0 0.0 0.00 0.01 0.00 99 1006.5
20260506030905 45 0 0.0 0.0 0.00 0.01 0.00 99 1006.3
20260506030805 45 0 0.0 0.0 0.00 0.01 0.00 99 1006.3
20260506030605 45 46 0.0 2.0 0.00 0.01 0.00 99 1006.4
20260506030304 45 46 0.0 2.0 0.00 0.01 0.00 99 1006.3
20260506030205 46 46 0.0 2.0 0.00 0.01 0.00 99 1006.3
20260506030105 46 46 0.0 2.0 0.00 0.01 0.00 99 1006.4
20260506030005 46 46 0.0 2.0 0.00 0.01 0.00 99 1006.3
20260506025904 46 46 0.0 2.0 0.00 0.01 0.00 99 1006.4
20260506025808 46 46 0.0 2.0 0.00 0.01 0.00 99 1006.5
20260506025705 46 0 0.0 0.0 0.00 0.01 0.00 99 1006.5
20260506025604 46 0 0.0 0.0 0.00 0.01 0.00 99 1006.3
20260506025505 46 0 0.0 0.0 0.00 0.01 0.00 99 1006.5
20260506025405 46 0 0.0 0.0 0.00 0.01 0.00 99 1006.5
20260506025005 46 0 0.0 0.0 0.00 0.01 0.00 99 1006.4
20260506024905 46 0 0.0 0.0 0.00 0.01 0.00 99 1006.5
20260506024807 46 0 0.0 0.0 0.00 0.01 0.00 99 1006.5
20260506024705 46 0 0.0 0.0 0.00 0.01 0.00 99 1006.4
20260506024504 46 1 0.0 2.0 0.00 0.01 0.00 99 1006.5
20260506024305 46 1 0.0 2.0 0.00 0.01 0.00 99 1006.6
20260506024205 46 1 0.0 2.0 0.00 0.01 0.00 99 1006.5
20260506024005 46 1 0.0 2.0 0.00 0.01 0.00 99 1006.5
20260506023908 46 1 0.0 2.0 0.00 0.01 0.00 99 1006.5
20260506023805 46 7 0.0 2.0 0.00 0.01 0.00 99 1006.5
20260506023705 46 14 0.0 2.0 0.00 0.01 0.00 99 1006.5
20260506023605 46 18 0.0 2.0 0.00 0.01 0.00 99 1006.5
20260506023505 46 33 0.0 2.0 0.00 0.01 0.00 99 1006.5
20260506023305 46 46 0.0 2.0 0.00 0.01 0.00 99 1006.6
20260506023008 47 46 0.0 2.0 0.00 0.01 0.00 99 1006.6
20260506022905 47 46 0.0 2.0 0.00 0.01 0.00 99 1006.6
20260506022704 47 0 0.0 0.0 0.00 0.01 0.00 99 1006.5
20260506022405 47 0 0.0 0.0 0.00 0.01 0.00 99 1006.5
20260506022306 47 0 0.0 0.0 0.00 0.01 0.00 99 1006.4
20260506022205 47 0 0.0 0.0 0.00 0.01 0.00 99 1006.4
20260506022008 47 0 0.0 0.0 0.00 0.01 0.00 99 1006.4
20260506021905 47 0 0.0 0.0 0.00 0.01 0.00 99 1006.4
20260506021805 47 0 0.0 0.0 0.00 0.01 0.00 99 1006.5
20260506021704 47 0 0.0 0.0 0.00 0.01 0.00 99 1006.5
20260506021605 47 0 0.0 0.0 0.00 0.01 0.00 99 1006.4
20260506021505 47 0 0.0 0.0 0.00 0.01 0.00 99 1006.4
20260506021305 46 0 0.0 0.0 0.00 0.01 0.00 99 1006.4
20260506021204 46 0 0.0 0.0 0.00 0.01 0.00 99 1006.4
20260506021005 46 0 0.0 0.0 0.00 0.01 0.00 99 1006.4
20260506020904 46 0 0.0 0.0 0.00 0.01 0.00 99 1006.4
20260506020805 46 0 0.0 0.0 0.00 0.01 0.00 99 1006.4
20260506020705 46 0 0.0 0.0 0.00 0.01 0.00 99 1006.4
20260506020605 46 0 0.0 0.0 0.00 0.01 0.00 99 1006.5
20260506020504 46 0 0.0 0.0 0.00 0.01 0.00 99 1006.4
20260506020204 46 83 0.0 2.0 0.00 0.01 0.00 99 1006.5
20260506015905 47 71 0.0 2.0 0.00 0.01 0.00 99 1006.5
20260506015805 47 71 0.0 2.0 0.00 0.01 0.00 99 1006.5
20260506015705 47 71 0.0 2.0 0.00 0.01 0.00 99 1006.5
20260506015605 47 64 0.0 2.0 0.00 0.01 0.00 99 1006.4
20260506015404 47 59 1.0 2.0 0.00 0.01 0.00 99 1006.5
20260506015306 47 33 1.0 2.0 0.00 0.01 0.00 99 1006.5
20260506015205 47 1 1.0 2.0 0.00 0.01 0.00 99 1006.5
20260506015104 47 1 0.0 2.0 0.00 0.01 0.00 99 1006.5
20260506015005 47 1 0.0 2.0 0.00 0.01 0.00 99 1006.6
20260506014904 47 1 0.0 2.0 0.00 0.01 0.00 99 1006.6
20260506014805 47 1 0.0 2.0 0.00 0.01 0.00 99 1006.6
20260506014705 47 1 0.0 2.0 0.00 0.01 0.00 99 1006.6
20260506014605 47 1 0.0 2.0 0.00 0.01 0.00 99 1006.7
20260506014504 47 1 0.0 2.0 0.00 0.01 0.00 99 1006.5
20260506014404 47 1 0.0 2.0 0.00 0.01 0.00 99 1006.7
20260506014308 47 1 0.0 2.0 0.00 0.01 0.00 99 1006.6
20260506014104 47 1 0.0 2.0 0.00 0.01 0.00 99 1006.8
20260506014005 47 0 0.0 0.0 0.00 0.01 0.00 99 1006.7
20260506013905 47 0 0.0 0.0 0.00 0.01 0.00 99 1006.7
20260506013804 47 0 0.0 0.0 0.00 0.01 0.00 99 1006.9
20260506013705 47 0 0.0 0.0 0.00 0.01 0.00 99 1006.8
20260506013407 47 0 0.0 0.0 0.00 0.01 0.00 99 1006.9
20260506013305 47 0 0.0 0.0 0.00 0.01 0.00 99 1006.9
20260506013105 47 0 0.0 0.0 0.00 0.01 0.00 99 1006.9
20260506012805 47 270 0.0 2.0 0.00 0.01 0.00 99 1006.9
20260506012705 47 284 0.0 2.0 0.00 0.01 0.00 99 1006.8
20260506012604 47 288 0.0 2.0 0.00 0.01 0.00 99 1007.0
20260506012508 47 291 0.0 2.0 0.00 0.01 0.00 99 1007.1
20260506012405 47 285 0.0 2.0 0.00 0.01 0.00 99 1006.9
20260506012307 47 285 0.0 2.0 0.00 0.01 0.00 99 1006.9
20260506012204 47 285 0.0 2.0 0.00 0.01 0.00 99 1007.1
20260506012105 47 285 0.0 2.0 0.00 0.01 0.00 99 1006.9
20260506012005 47 285 0.0 2.0 0.00 0.01 0.00 99 1006.9
20260506011905 47 288 0.0 2.0 0.00 0.01 0.00 99 1007.0
20260506011805 47 293 0.0 2.0 0.00 0.01 0.00 99 1006.8
20260506011607 47 321 0.0 2.0 0.00 0.01 0.00 99 1006.9
20260506011505 47 337 0.0 2.0 0.00 0.01 0.00 99 1006.8
20260506011405 47 357 0.0 2.0 0.00 0.01 0.00 99 1007.0
20260506011304 47 353 0.0 2.0 0.00 0.01 0.00 99 1006.9
20260506011205 47 352 0.0 2.0 0.00 0.01 0.00 99 1007.0
20260506011105 47 353 0.0 2.0 0.00 0.01 0.00 99 1006.9
20260506011004 47 354 0.0 2.0 0.00 0.01 0.00 99 1006.9
20260506010905 46 354 0.0 2.0 0.00 0.01 0.00 99 1006.9
20260506010805 46 354 0.0 2.0 0.00 0.01 0.00 99 1006.9
20260506010705 46 354 0.0 2.0 0.00 0.01 0.00 99 1006.9
20260506010604 46 353 0.0 2.0 0.00 0.01 0.00 99 1006.8
20260506010508 46 352 0.0 2.0 0.00 0.01 0.00 99 1006.8
20260506010405 46 350 1.0 2.0 0.00 0.01 0.00 99 1006.9
20260506010305 46 353 1.0 2.0 0.00 0.01 0.00 99 1006.8
20260506010205 46 1 0.0 2.0 0.00 0.01 0.00 99 1006.8
20260506010104 46 1 0.0 2.0 0.00 0.01 0.00 99 1006.7
20260506010005 46 1 0.0 1.0 0.00 0.01 0.00 99 1006.6
20260506005905 46 0 0.0 0.0 0.00 0.01 0.00 99 1006.8
20260506005705 46 0 0.0 0.0 0.00 0.01 0.00 99 1006.7
20260506005608 46 0 0.0 0.0 0.00 0.01 0.00 99 1006.7
20260506005405 46 0 0.0 0.0 0.00 0.01 0.00 99 1006.7
20260506005306 46 0 0.0 0.0 0.00 0.01 0.00 99 1006.8
20260506005205 46 0 0.0 0.0 0.00 0.01 0.00 99 1006.6
20260506004905 47 0 0.0 0.0 0.00 0.01 0.00 99 1006.6
20260506004805 47 0 0.0 0.0 0.00 0.01 0.00 99 1006.7
20260506004705 47 0 0.0 0.0 0.00 0.01 0.00 99 1006.7
20260506004608 47 0 0.0 0.0 0.00 0.01 0.00 99 1006.7
20260506004505 47 1 0.0 2.0 0.00 0.01 0.00 99 1006.7
20260506004405 47 1 0.0 2.0 0.00 0.01 0.00 99 1006.7
20260506004305 47 14 0.0 2.0 0.00 0.01 0.00 99 1006.5
20260506004105 47 14 0.0 2.0 0.00 0.01 0.00 99 1006.6
20260506004005 47 14 0.0 2.0 0.00 0.01 0.00 99 1006.7
20260506003904 47 14 0.0 2.0 0.00 0.01 0.00 99 1006.6
20260506003805 47 14 0.0 2.0 0.00 0.01 0.00 99 1006.7
20260506003705 47 16 0.0 2.0 0.00 0.01 0.00 99 1006.7
20260506003608 47 17 0.0 2.0 0.00 0.01 0.00 99 1006.7
20260506003505 47 20 1.0 2.0 0.00 0.01 0.00 99 1006.7
20260506003405 47 39 1.0 2.0 0.00 0.01 0.00 99 1006.7
20260506003305 47 45 0.0 1.0 0.00 0.01 0.00 99 1006.8
20260506003205 47 45 0.0 1.0 0.00 0.01 0.00 99 1006.8
20260506003105 47 45 0.0 1.0 0.00 0.01 0.00 99 1006.8
20260506002905 47 45 0.0 1.0 0.00 0.01 0.00 99 1006.9
20260506002805 47 45 0.0 1.0 0.00 0.01 0.00 99 1007.0
20260506002708 47 5 0.0 2.0 0.00 0.01 0.00 99 1006.8
20260506002604 47 1 0.0 2.0 0.00 0.01 0.00 99 1006.9
20260506002505 47 6 0.0 2.0 0.00 0.01 0.00 99 1006.8
20260506002405 47 18 0.0 2.0 0.00 0.01 0.00 99 1006.9
20260506002306 47 14 0.0 2.0 0.00 0.01 0.00 99 1006.9
20260506002204 48 12 0.0 2.0 0.00 0.01 0.00 99 1006.9
20260506002104 48 10 0.0 2.0 0.00 0.01 0.00 99 1007.0
20260506002005 48 9 0.0 2.0 0.00 0.01 0.00 99 1006.9
20260506001904 48 8 0.0 2.0 0.00 0.01 0.00 99 1007.1
20260506001804 48 9 0.0 2.0 0.00 0.01 0.00 99 1006.9
20260506001708 48 10 0.0 2.0 0.00 0.01 0.00 99 1007.1
20260506001605 48 12 0.0 2.0 0.00 0.01 0.00 99 1007.0
20260506001504 48 11 0.0 2.0 0.00 0.01 0.00 99 1007.0
20260506001205 48 5 1.0 2.0 0.00 0.01 0.00 99 1007.2
20260506001005 48 12 0.0 2.0 0.00 0.01 0.00 99 1007.1
20260506000905 48 45 0.0 1.0 0.00 0.01 0.00 99 1007.1
20260506000804 48 0 0.0 0.0 0.00 0.01 0.00 99 1007.1
20260506000705 48 0 0.0 0.0 0.00 0.01 0.00 99 1007.2
20260506000605 48 0 0.0 0.0 0.00 0.01 0.00 99 1007.1
20260506000505 48 0 0.0 0.0 0.00 0.01 0.00 99 1007.0
20260506000405 48 0 0.0 0.0 0.00 0.01 0.00 99 1007.0
20260506000304 48 0 0.0 0.0 0.00 0.01 0.00 99 1007.1
20260506000205 48 0 0.0 0.0 0.00 0.01 0.00 99 1007.1
20260506000105 48 0 0.0 0.0 0.00 0.01 0.00 99 1007.0
20260506000005 48 0 0.0 0.0 0.00 0.01 0.00 99 1007.1
20260505235905 48 0 0.0 0.0 0.00 0.01 0.00 99 1007.1
20260505235808 48 0 0.0 0.0 0.00 0.01 0.00 99 1007.1
20260505235704 48 0 0.0 0.0 0.00 0.01 0.00 99 1007.0
20260505235604 48 0 0.0 0.0 0.00 0.01 0.00 99 1007.1
20260505235505 48 0 0.0 0.0 0.00 0.01 0.00 99 1007.2
20260505235405 48 0 0.0 0.0 0.00 0.01 0.00 99 1007.1
20260505235305 48 0 0.0 0.0 0.00 0.01 0.00 99 1007.1
20260505235204 48 0 0.0 0.0 0.00 0.01 0.00 99 1007.2
20260505235105 48 0 0.0 0.0 0.00 0.01 0.00 99 1007.2
20260505234907 49 0 0.0 0.0 0.00 0.01 0.00 99 1007.1
20260505234705 49 0 0.0 0.0 0.00 0.01 0.00 99 1007.2
20260505234605 48 0 0.0 0.0 0.00 0.01 0.00 99 1007.1
20260505234505 48 0 0.0 0.0 0.00 0.01 0.00 99 1007.3
20260505234405 48 90 0.0 2.0 0.00 0.01 0.00 99 1007.3
20260505234305 48 67 0.0 2.0 0.00 0.01 0.00 99 1007.2
20260505234105 48 45 0.0 2.0 0.00 0.01 0.00 99 1007.3
20260505234005 48 40 0.0 2.0 0.00 0.01 0.00 99 1007.3
20260505233907 48 40 0.0 2.0 0.00 0.01 0.00 99 1007.4
20260505233805 48 40 0.0 2.0 0.00 0.01 0.00 99 1007.5
20260505233605 48 40 0.0 2.0 0.00 0.01 0.00 99 1007.3
20260505233504 48 42 0.0 2.0 0.00 0.01 0.00 99 1007.4
20260505233405 48 34 0.0 2.0 0.00 0.01 0.00 99 1007.4
20260505233305 48 70 0.0 2.0 0.00 0.01 0.00 99 1007.4
20260505233204 48 60 0.0 2.0 0.00 0.01 0.00 99 1007.4
20260505233005 48 74 0.0 2.0 0.00 0.01 0.00 99 1007.5
20260505232908 48 79 0.0 2.0 0.00 0.01 0.00 99 1007.5
20260505232704 48 80 0.0 2.0 0.00 0.01 0.00 99 1007.3
20260505232505 49 80 0.0 2.0 0.00 0.01 0.00 99 1007.4
20260505232405 49 77 0.0 2.0 0.00 0.01 0.00 99 1007.4
20260505232305 49 65 0.0 2.0 0.00 0.01 0.00 99 1007.5
20260505232205 49 75 0.0 2.0 0.00 0.01 0.00 99 1007.4
20260505232105 49 75 0.0 2.0 0.00 0.01 0.00 99 1007.4
20260505232008 49 90 0.0 2.0 0.00 0.01 0.00 99 1007.4
20260505231805 48 0 0.0 0.0 0.00 0.01 0.00 99 1007.5
20260505231704 48 0 0.0 0.0 0.00 0.01 0.00 99 1007.5
20260505231605 48 90 0.0 1.0 0.00 0.01 0.00 99 1007.5
20260505231505 48 90 0.0 1.0 0.00 0.01 0.00 99 1007.5
20260505231405 48 90 0.0 1.0 0.00 0.01 0.00 99 1007.5
20260505231305 49 90 0.0 1.0 0.00 0.01 0.00 99 1007.5
20260505231205 49 90 0.0 1.0 0.00 0.01 0.00 99 1007.5
20260505231108 49 90 0.0 1.0 0.00 0.01 0.00 99 1007.5
20260505231006 49 90 0.0 1.0 0.00 0.01 0.00 99 1007.5
20260505230904 49 90 0.0 1.0 0.00 0.01 0.00 99 1007.5
20260505230805 49 90 0.0 1.0 0.00 0.01 0.00 99 1007.5
20260505230704 49 90 0.0 1.0 0.00 0.01 0.00 99 1007.6
20260505230505 49 0 0.0 0.0 0.00 0.01 0.00 99 1007.5
20260505230404 49 0 0.0 0.0 0.00 0.01 0.00 99 1007.7
20260505230304 49 0 0.0 0.0 0.00 0.01 0.00 99 1007.5
20260505230205 49 0 0.0 0.0 0.00 0.01 0.00 99 1007.7
20260505230005 49 0 0.0 0.0 0.00 0.01 0.00 99 1007.7
20260505225804 50 15 0.0 2.0 0.00 0.01 0.00 99 1007.6
20260505225705 50 26 0.0 2.0 0.00 0.01 0.00 99 1007.5
20260505225605 50 26 0.0 2.0 0.00 0.01 0.00 99 1007.6
20260505225504 50 26 0.0 2.0 0.00 0.01 0.00 99 1007.6
20260505225405 50 21 0.0 2.0 0.00 0.01 0.00 99 1007.7
20260505225306 50 15 0.0 2.0 0.00 0.01 0.00 99 1007.5
20260505225204 50 14 0.0 2.0 0.00 0.01 0.00 99 1007.5
20260505225005 50 24 0.0 2.0 0.00 0.01 0.00 98 1007.7
20260505224905 50 24 0.0 2.0 0.00 0.01 0.00 98 1007.5
20260505224705 50 20 0.0 2.0 0.00 0.01 0.00 98 1007.4
20260505224605 50 17 0.0 2.0 0.00 0.01 0.00 98 1007.5
20260505224405 50 35 0.0 2.0 0.00 0.01 0.00 98 1007.4
20260505224305 50 58 0.0 1.0 0.00 0.01 0.00 98 1007.4
20260505224105 50 64 0.0 1.0 0.00 0.01 0.00 98 1007.4
20260505224005 50 35 0.0 2.0 0.00 0.01 0.00 98 1007.4
20260505223905 50 67 0.0 3.0 0.00 0.01 0.00 98 1007.4
20260505223805 51 40 0.0 3.0 0.00 0.01 0.00 98 1007.4
20260505223704 51 33 0.0 3.0 0.00 0.01 0.00 98 1007.3
20260505223605 51 33 0.0 3.0 0.00 0.01 0.00 98 1007.4
20260505223505 51 33 0.0 3.0 0.00 0.01 0.00 98 1007.5
20260505223404 51 30 0.0 3.0 0.00 0.01 0.00 98 1007.5
20260505223208 51 25 0.0 3.0 0.00 0.01 0.00 98 1007.4
20260505223004 51 25 0.0 3.0 0.00 0.01 0.00 98 1007.5
20260505222905 51 1 1.0 2.0 0.00 0.01 0.00 98 1007.5
20260505222805 51 1 1.0 2.0 0.00 0.01 0.00 98 1007.5
20260505222604 51 1 0.0 2.0 0.00 0.01 0.00 98 1007.4
20260505222405 51 1 0.0 2.0 0.00 0.01 0.00 98 1007.4
20260505222306 51 1 0.0 2.0 0.00 0.01 0.00 98 1007.5
20260505222105 51 1 0.0 2.0 0.00 0.01 0.00 98 1007.4
20260505221805 51 5 0.0 2.0 0.00 0.01 0.00 97 1007.4
20260505221704 51 5 0.0 2.0 0.00 0.01 0.00 97 1007.4
20260505221605 51 17 0.0 4.0 0.00 0.01 0.00 97 1007.4
20260505221505 51 17 0.0 4.0 0.00 0.01 0.00 97 1007.5
20260505221307 51 18 0.0 4.0 0.00 0.01 0.00 97 1007.5
20260505221204 51 25 0.0 4.0 0.00 0.01 0.00 97 1007.5
20260505221105 51 27 1.0 4.0 0.00 0.01 0.00 97 1007.5
20260505221006 51 28 1.0 4.0 0.00 0.01 0.00 97 1007.5
20260505220904 52 23 0.0 4.0 0.00 0.01 0.00 97 1007.5
20260505220805 52 20 1.0 4.0 0.00 0.01 0.00 97 1007.5
20260505220704 52 29 0.0 4.0 0.00 0.01 0.00 97 1007.6
20260505220604 52 22 0.0 4.0 0.00 0.01 0.00 97 1007.6
20260505220505 52 24 1.0 4.0 0.00 0.01 0.00 97 1007.6
20260505220408 52 30 1.0 4.0 0.00 0.01 0.00 97 1007.6
20260505220304 52 44 0.0 4.0 0.00 0.01 0.00 97 1007.7
20260505220205 52 42 0.0 4.0 0.00 0.01 0.00 97 1007.6
20260505220105 52 43 1.0 4.0 0.00 0.01 0.00 96 1007.6
20260505220010 52 48 1.0 4.0 0.00 0.01 0.00 97 1007.7
20260505215905 52 53 0.0 4.0 0.00 0.01 0.01 96 1007.5
20260505215805 52 62 2.0 4.0 0.00 0.01 0.01 97 1007.6
20260505215705 52 67 1.0 4.0 0.00 0.01 0.01 96 1007.6
20260505215605 52 61 0.0 4.0 0.00 0.01 0.01 96 1007.6
20260505215504 52 56 2.0 4.0 0.00 0.01 0.01 96 1007.5
20260505215408 52 71 1.0 5.0 0.00 0.01 0.01 96 1007.6
20260505215305 52 63 0.0 5.0 0.00 0.01 0.01 96 1007.6
20260505215204 52 57 0.0 5.0 0.00 0.01 0.01 96 1007.6
20260505215105 52 62 0.0 5.0 0.00 0.01 0.01 96 1007.7
20260505215005 52 60 0.0 5.0 0.00 0.01 0.01 96 1007.6
20260505214904 52 71 0.0 5.0 0.00 0.01 0.01 96 1007.6
20260505214805 52 77 2.0 5.0 0.00 0.01 0.01 96 1007.7
20260505214705 52 74 2.0 5.0 0.00 0.01 0.01 96 1007.5
20260505214605 52 72 1.0 5.0 0.00 0.01 0.01 96 1007.6
20260505214506 52 72 2.0 5.0 0.00 0.01 0.01 96 1007.6
20260505214404 52 63 2.0 5.0 0.00 0.01 0.01 96 1007.7
20260505214305 52 63 1.0 5.0 0.00 0.01 0.01 96 1007.5
20260505214105 52 53 2.0 5.0 0.00 0.01 0.01 96 1007.5
20260505214005 52 45 0.0 5.0 0.00 0.01 0.01 96 1007.6
20260505213805 53 22 0.0 4.0 0.00 0.01 0.01 96 1007.6
20260505213604 53 32 1.0 4.0 0.00 0.01 0.01 95 1007.5
20260505213508 53 35 1.0 4.0 0.00 0.01 0.01 95 1007.5
20260505213404 53 37 0.0 4.0 0.00 0.01 0.01 95 1007.5
20260505213305 53 36 1.0 4.0 0.00 0.01 0.01 95 1007.4
20260505213205 53 33 2.0 4.0 0.00 0.01 0.01 95 1007.4
20260505213005 53 75 0.0 2.0 0.00 0.01 0.01 95 1007.4
20260505212904 53 87 0.0 2.0 0.00 0.01 0.01 95 1007.6
20260505212805 53 88 0.0 4.0 0.00 0.01 0.01 95 1007.4
20260505212705 53 90 0.0 4.0 0.00 0.01 0.01 95 1007.6
20260505212607 53 86 0.0 4.0 0.00 0.01 0.01 94 1007.5
20260505212504 53 84 0.0 5.0 0.00 0.01 0.01 94 1007.5
20260505212405 53 77 0.0 5.0 0.00 0.01 0.01 94 1007.5
20260505212306 53 74 0.0 5.0 0.00 0.01 0.01 94 1007.4
20260505212205 53 72 0.0 5.0 0.00 0.01 0.01 94 1007.4
20260505212105 53 71 0.0 5.0 0.00 0.01 0.01 94 1007.5
20260505212004 53 63 1.0 5.0 0.00 0.01 0.01 94 1007.5
20260505211905 53 57 0.0 5.0 0.00 0.01 0.01 94 1007.5
20260505211805 53 46 1.0 5.0 0.00 0.01 0.01 94 1007.6
20260505211704 53 42 1.0 6.0 0.00 0.01 0.01 94 1007.3
20260505211608 54 43 1.0 6.0 0.00 0.01 0.01 93 1007.5
20260505211505 54 45 2.0 6.0 0.00 0.01 0.01 93 1007.5
20260505211405 54 38 0.0 6.0 0.00 0.01 0.01 93 1007.3
20260505211304 54 44 1.0 6.0 0.00 0.01 0.01 93 1007.4
20260505211205 54 49 1.0 6.0 0.00 0.01 0.01 93 1007.3
20260505211105 54 40 1.0 7.0 0.00 0.01 0.01 93 1007.5
20260505211004 54 38 3.0 7.0 0.00 0.01 0.01 93 1007.4
20260505210905 54 38 2.0 7.0 0.00 0.01 0.01 93 1007.5
20260505210805 54 48 2.0 7.0 0.00 0.01 0.01 93 1007.4
20260505210608 54 48 0.0 7.0 0.00 0.01 0.01 92 1007.5
20260505210504 54 44 2.0 7.0 0.00 0.01 0.01 92 1007.5
20260505210405 54 52 2.0 7.0 0.00 0.01 0.01 92 1007.5
20260505210105 54 42 4.0 8.0 0.00 0.01 0.01 92 1007.4
20260505210005 54 52 2.0 8.0 0.00 0.01 0.01 92 1007.5
20260505205905 54 52 2.0 8.0 0.00 0.01 0.01 92 1007.6
20260505205805 54 40 3.0 8.0 0.00 0.01 0.01 92 1007.5
20260505205505 54 20 2.0 8.0 0.00 0.01 0.01 92 1007.4
20260505205405 54 15 2.0 8.0 0.00 0.01 0.01 92 1007.6
20260505205306 54 19 0.0 8.0 0.00 0.01 0.01 92 1007.4
20260505205205 54 16 1.0 8.0 0.00 0.01 0.01 92 1007.5
20260505205104 54 19 4.0 8.0 0.00 0.01 0.01 92 1007.6
20260505204905 54 18 2.0 6.0 0.00 0.01 0.01 92 1007.4
20260505204805 54 25 4.0 6.0 0.00 0.01 0.01 92 1007.5
20260505204705 55 32 2.0 6.0 0.00 0.01 0.01 92 1007.6
20260505204604 55 43 2.0 6.0 0.00 0.01 0.01 92 1007.5
20260505204505 55 47 2.0 7.0 0.00 0.01 0.01 92 1007.5
20260505204405 55 44 2.0 7.0 0.00 0.01 0.01 92 1007.5
20260505204305 55 39 2.0 7.0 0.00 0.01 0.01 92 1007.5
20260505204105 55 37 3.0 7.0 0.00 0.01 0.01 92 1007.6
20260505204005 55 34 2.0 7.0 0.00 0.01 0.01 92 1007.6
20260505203904 55 38 2.0 7.0 0.00 0.01 0.01 92 1007.6
20260505203705 55 35 3.0 7.0 0.00 0.01 0.01 91 1007.8
20260505203604 55 29 3.0 7.0 0.00 0.01 0.01 91 1007.6
20260505203505 55 30 3.0 7.0 0.00 0.01 0.01 91 1007.6
20260505203405 55 38 2.0 7.0 0.00 0.01 0.01 91 1007.6
20260505203305 55 41 2.0 7.0 0.00 0.01 0.01 91 1007.6
20260505203205 55 42 3.0 7.0 0.00 0.01 0.01 91 1007.6
20260505203104 55 45 2.0 7.0 0.00 0.01 0.01 91 1007.5
20260505203005 55 45 4.0 7.0 0.00 0.01 0.01 91 1007.6
20260505202904 55 40 2.0 7.0 0.00 0.01 0.01 91 1007.5
20260505202705 55 29 2.0 7.0 0.00 0.01 0.01 91 1007.4
20260505202608 56 27 3.0 7.0 0.00 0.01 0.01 90 1007.5
20260505202505 56 20 3.0 7.0 0.00 0.01 0.01 90 1007.4
20260505202405 56 20 2.0 7.0 0.00 0.01 0.01 90 1007.4
20260505202307 56 15 2.0 8.0 0.00 0.01 0.01 90 1007.4
20260505202104 56 16 2.0 8.0 0.00 0.01 0.01 90 1007.4
20260505202005 56 14 3.0 8.0 0.00 0.01 0.01 90 1007.5
20260505201905 56 15 1.0 8.0 0.00 0.01 0.01 90 1007.4
20260505201805 56 16 2.0 8.0 0.00 0.01 0.01 89 1007.4
20260505201708 56 16 4.0 8.0 0.00 0.01 0.01 89 1007.4
20260505201505 56 18 2.0 8.0 0.00 0.01 0.01 89 1007.4
20260505201411 56 14 3.0 8.0 0.00 0.01 0.01 89 1007.4
20260505201305 56 14 4.0 8.0 0.00 0.01 0.01 89 1007.5
20260505201204 56 18 2.0 6.0 0.00 0.01 0.01 89 1007.4
20260505201105 56 16 3.0 6.0 0.00 0.01 0.01 89 1007.5
20260505201005 56 11 2.0 6.0 0.00 0.01 0.01 89 1007.5
20260505200905 56 12 2.0 5.0 0.00 0.01 0.01 89 1007.4
20260505200804 56 17 2.0 5.0 0.00 0.01 0.01 88 1007.4
20260505200705 56 16 2.0 4.0 0.00 0.01 0.01 88 1007.4
20260505200605 56 17 0.0 4.0 0.00 0.01 0.01 88 1007.4
20260505200504 56 23 1.0 4.0 0.00 0.01 0.01 87 1007.4
20260505200405 56 26 1.0 4.0 0.00 0.01 0.01 87 1007.4
20260505200305 56 31 2.0 8.0 0.00 0.01 0.01 87 1007.3
20260505195804 56 29 1.0 9.0 0.00 0.01 0.01 85 1007.2
20260505195705 56 37 2.0 9.0 0.00 0.01 0.01 85 1007.3
20260505195605 56 36 2.0 9.0 0.00 0.01 0.01 84 1007.4
20260505195505 56 33 1.0 9.0 0.00 0.01 0.01 84 1007.3
20260505195205 56 25 2.0 9.0 0.00 0.01 0.01 84 1007.3
20260505195105 56 25 4.0 9.0 0.00 0.01 0.01 84 1007.4
20260505195005 56 27 0.0 5.0 0.00 0.01 0.01 84 1007.4
20260505194905 56 29 2.0 5.0 0.00 0.01 0.01 85 1007.3
20260505194808 56 34 1.0 5.0 0.00 0.01 0.01 85 1007.2
20260505194705 56 32 1.0 5.0 0.00 0.01 0.01 85 1007.3
20260505194605 56 35 1.0 6.0 0.00 0.01 0.01 85 1007.2
20260505194405 56 45 2.0 6.0 0.00 0.01 0.01 86 1007.4
20260505194304 56 48 1.0 6.0 0.00 0.01 0.01 86 1007.2
20260505194205 56 36 0.0 6.0 0.00 0.01 0.01 86 1007.3
20260505194105 56 41 1.0 6.0 0.00 0.01 0.01 86 1007.3
20260505194008 56 43 1.0 6.0 0.00 0.01 0.01 86 1007.4
20260505193906 56 48 0.0 6.0 0.00 0.01 0.01 86 1007.4
20260505193804 56 55 1.0 6.0 0.00 0.01 0.01 87 1007.2
20260505193705 56 46 3.0 6.0 0.00 0.01 0.01 87 1007.2
20260505193605 56 45 1.0 3.0 0.00 0.01 0.01 87 1007.1
20260505193504 56 49 0.0 3.0 0.00 0.01 0.01 88 1007.2
20260505193405 56 45 1.0 3.0 0.00 0.01 0.01 88 1007.1
20260505193305 56 45 0.0 3.0 0.00 0.01 0.01 88 1007.1
20260505193205 56 54 0.0 3.0 0.00 0.01 0.01 88 1007.1
20260505193105 56 53 0.0 3.0 0.00 0.01 0.01 88 1007.0
20260505193009 56 63 0.0 3.0 0.00 0.01 0.01 87 1007.0
20260505192605 56 57 0.0 2.0 0.00 0.02 0.01 87 1006.9
20260505192504 56 51 0.0 2.0 0.00 0.04 0.01 87 1006.8
20260505192405 56 42 0.0 2.0 0.00 0.04 0.01 87 1006.8
20260505192306 56 37 1.0 2.0 0.00 0.04 0.01 87 1006.8
20260505192107 56 24 0.0 2.0 0.00 0.04 0.01 88 1006.9
20260505192005 56 14 1.0 2.0 0.00 0.04 0.01 88 1006.7
20260505191905 56 12 0.0 2.0 0.00 0.05 0.01 88 1006.7
20260505191804 56 19 0.0 2.0 0.00 0.05 0.01 88 1006.6
20260505191705 56 16 0.0 2.0 0.00 0.05 0.01 88 1006.7
20260505191605 56 31 0.0 2.0 0.00 0.05 0.01 88 1006.6
20260505191504 56 26 0.0 2.0 0.00 0.05 0.01 88 1006.6
20260505191405 56 37 0.0 2.0 0.00 0.05 0.01 88 1006.7
20260505191305 56 27 0.0 4.0 0.00 0.05 0.01 88 1006.7
20260505191205 56 40 1.0 4.0 0.00 0.05 0.01 88 1006.7
20260505191108 56 66 0.0 4.0 0.00 0.05 0.01 88 1006.6
20260505191004 56 70 0.0 4.0 0.00 0.05 0.01 88 1006.8
20260505190905 56 67 0.0 4.0 0.00 0.05 0.01 88 1006.7
20260505190805 56 71 0.0 4.0 0.00 0.05 0.01 88 1006.7
20260505190704 56 77 0.0 4.0 0.00 0.05 0.01 88 1006.6
20260505190505 56 84 1.0 4.0 0.00 0.05 0.01 87 1006.7
20260505190405 56 89 1.0 4.0 0.00 0.05 0.01 88 1006.6
20260505190305 56 95 2.0 4.0 0.00 0.05 0.01 88 1006.6
20260505190205 56 98 1.0 4.0 0.00 0.06 0.01 89 1006.7
20260505190005 56 88 0.0 4.0 0.00 0.07 0.01 89 1006.8
20260505185905 57 91 1.0 4.0 0.00 0.07 0.01 89 1006.7
20260505185805 57 93 1.0 4.0 0.00 0.07 0.01 89 1006.6
20260505185705 57 91 0.0 2.0 0.00 0.07 0.01 90 1006.6
20260505185605 57 92 1.0 2.0 0.00 0.07 0.01 90 1006.6
20260505185504 57 92 0.0 2.0 0.00 0.07 0.01 90 1006.6
20260505185405 57 92 0.0 2.0 0.00 0.07 0.01 89 1006.5
20260505185305 57 92 0.0 2.0 0.00 0.07 0.01 90 1006.7
20260505185105 57 93 0.0 2.0 0.00 0.07 0.01 89 1006.6
20260505185005 57 93 1.0 4.0 0.00 0.07 0.01 89 1006.6
20260505184905 57 92 1.0 4.0 0.00 0.07 0.01 89 1006.6
20260505184805 57 92 1.0 4.0 0.00 0.07 0.01 89 1006.7
20260505184705 57 91 1.0 4.0 0.00 0.07 0.01 89 1006.7
20260505184605 57 90 1.0 4.0 0.00 0.07 0.01 88 1006.7
20260505184505 57 90 1.0 4.0 0.00 0.07 0.01 88 1006.8
20260505184404 58 90 1.0 4.0 0.00 0.07 0.01 88 1006.6
20260505184208 58 90 1.0 4.0 0.00 0.07 0.01 87 1006.6
20260505184104 58 90 1.0 4.0 0.00 0.07 0.01 86 1006.7
20260505183804 58 90 1.0 4.0 0.00 0.07 0.01 85 1006.6
20260505183705 58 88 2.0 4.0 0.00 0.07 0.01 85 1006.7
20260505183505 58 87 1.0 3.0 0.00 0.07 0.01 85 1006.6
20260505183405 58 85 1.0 2.0 0.00 0.07 0.01 85 1006.6
20260505183304 58 80 1.0 2.0 0.00 0.07 0.01 85 1006.6
20260505183208 58 76 0.0 2.0 0.00 0.07 0.01 84 1006.5
20260505183105 58 71 0.0 2.0 0.00 0.07 0.01 83 1006.7
20260505183005 58 62 0.0 3.0 0.00 0.07 0.01 83 1006.6
20260505182905 58 58 0.0 3.0 0.00 0.07 0.01 83 1006.6
20260505182805 58 58 0.0 3.0 0.00 0.07 0.01 82 1006.5
20260505182705 58 60 0.0 3.0 0.00 0.07 0.01 82 1006.6
20260505182605 58 60 0.0 3.0 0.00 0.07 0.01 81 1006.6
20260505182505 58 56 0.0 3.0 0.00 0.07 0.01 81 1006.6
20260505182405 58 53 0.0 3.0 0.00 0.07 0.01 80 1006.4
20260505182306 58 58 0.0 3.0 0.00 0.07 0.01 80 1006.4
20260505182207 58 60 0.0 3.0 0.00 0.07 0.01 80 1006.3
20260505182105 58 62 0.0 3.0 0.00 0.07 0.01 80 1006.5
20260505182005 58 69 0.0 3.0 0.00 0.07 0.01 80 1006.4
20260505181905 58 79 0.0 2.0 0.00 0.07 0.01 80 1006.4
20260505181805 58 82 0.0 2.0 0.00 0.07 0.01 79 1006.4
20260505181705 58 78 0.0 2.0 0.00 0.07 0.01 80 1006.3
20260505181505 59 62 0.0 2.0 0.00 0.07 0.01 80 1006.3
20260505181405 59 65 0.0 2.0 0.00 0.07 0.01 79 1006.3
20260505181308 59 60 0.0 2.0 0.00 0.07 0.01 79 1006.2
20260505181205 59 51 0.0 2.0 0.00 0.07 0.01 79 1006.3
20260505181105 59 47 0.0 2.0 0.00 0.07 0.01 79 1006.1
20260505181005 59 30 0.0 2.0 0.00 0.07 0.01 80 1006.2
20260505180804 59 37 0.0 3.0 0.00 0.07 0.01 80 1006.3
20260505180705 59 37 0.0 3.0 0.00 0.07 0.01 80 1006.2
20260505180604 59 38 0.0 3.0 0.00 0.07 0.01 80 1006.3
20260505180505 59 43 0.0 3.0 0.00 0.07 0.01 79 1006.2
20260505180307 59 43 0.0 3.0 0.00 0.07 0.01 79 1006.1
20260505180205 59 46 0.0 3.0 0.00 0.07 0.01 78 1006.2
20260505180105 59 38 0.0 3.0 0.00 0.07 0.01 78 1006.3
20260505180005 59 42 0.0 3.0 0.00 0.07 0.01 78 1006.2
20260505175906 59 39 1.0 3.0 0.00 0.07 0.01 78 1006.2
20260505175804 59 28 0.0 4.0 0.00 0.07 0.01 77 1006.3
20260505175705 59 27 1.0 4.0 0.00 0.07 0.01 77 1006.1
20260505175605 60 21 0.0 4.0 0.00 0.07 0.01 77 1006.2
20260505175508 60 22 0.0 4.0 0.00 0.07 0.01 77 1006.1
20260505175305 60 25 0.0 4.0 0.00 0.07 0.01 76 1006.3
20260505175205 60 26 1.0 4.0 0.00 0.07 0.01 76 1006.2
20260505175105 60 34 1.0 4.0 0.00 0.07 0.01 76 1006.2
20260505175005 60 33 2.0 4.0 0.00 0.07 0.01 77 1006.2
20260505174905 60 31 2.0 4.0 0.00 0.07 0.01 76 1006.2
20260505174805 60 43 1.0 3.0 0.00 0.07 0.01 77 1006.1
20260505174605 60 52 0.0 3.0 0.00 0.07 0.01 77 1006.1
20260505174507 60 52 1.0 4.0 0.00 0.07 0.01 77 1006.2
20260505174105 60 62 1.0 6.0 0.00 0.07 0.01 77 1006.1
20260505173805 60 59 1.0 6.0 0.00 0.07 0.01 77 1006.0
20260505173705 60 58 1.0 6.0 0.00 0.07 0.01 77 1006.0
20260505173605 60 56 1.0 6.0 0.00 0.07 0.01 77 1006.1
20260505173405 61 56 1.0 6.0 0.00 0.07 0.01 77 1006.2
20260505173305 61 50 2.0 6.0 0.00 0.07 0.01 77 1006.1
20260505173205 61 45 2.0 6.0 0.00 0.07 0.01 77 1006.1
20260505173005 61 31 2.0 6.0 0.00 0.07 0.01 77 1006.0
20260505172905 61 29 1.0 6.0 0.00 0.07 0.01 77 1006.1
20260505172705 61 22 1.0 4.0 0.00 0.07 0.01 78 1006.2
20260505172608 61 23 0.0 4.0 0.00 0.07 0.01 77 1006.1
20260505172405 61 29 2.0 4.0 0.00 0.07 0.01 76 1006.2
20260505172306 61 33 1.0 4.0 0.00 0.07 0.01 76 1006.1
20260505172005 62 44 2.0 4.0 0.00 0.07 0.01 76 1006.0
20260505171705 62 71 0.0 4.0 0.00 0.07 0.01 77 1006.1
20260505171605 62 72 1.0 4.0 0.00 0.07 0.01 77 1006.2
20260505171505 62 73 2.0 4.0 0.00 0.07 0.01 76 1006.0
20260505171405 62 75 1.0 4.0 0.00 0.07 0.01 76 1006.2
20260505171305 62 87 1.0 3.0 0.00 0.07 0.01 77 1006.0
20260505171205 62 91 1.0 3.0 0.00 0.07 0.01 76 1006.1
20260505171104 62 103 0.0 3.0 0.00 0.07 0.01 76 1006.0
20260505171005 62 112 2.0 3.0 0.00 0.07 0.01 76 1006.1
20260505170705 63 0 0.0 0.0 0.00 0.07 0.01 78 1006.0
20260505170605 63 0 0.0 0.0 0.00 0.07 0.01 78 1005.8
20260505170405 63 90 0.0 2.0 0.00 0.07 0.01 77 1005.9
20260505170305 63 90 0.0 2.0 0.00 0.07 0.01 77 1005.8
20260505170204 63 90 0.0 2.0 0.00 0.07 0.01 77 1005.8
20260505170105 64 90 0.0 2.0 0.00 0.07 0.01 76 1006.0
20260505165907 64 90 0.0 2.0 0.00 0.07 0.01 76 1005.9
20260505165805 64 90 0.0 2.0 0.00 0.07 0.01 75 1006.0
20260505165705 63 90 0.0 2.0 0.00 0.07 0.01 75 1006.0
20260505165505 63 60 0.0 2.0 0.00 0.07 0.01 76 1006.0
20260505165405 63 45 0.0 2.0 0.00 0.07 0.01 75 1005.9
20260505165306 63 54 0.0 2.0 0.00 0.07 0.01 75 1006.0
20260505165204 63 53 0.0 2.0 0.00 0.07 0.01 75 1005.9
20260505165005 62 47 0.0 2.0 0.00 0.07 0.01 75 1006.0
20260505164907 62 50 0.0 2.0 0.00 0.07 0.01 77 1006.0
20260505164805 62 58 0.0 2.0 0.00 0.07 0.01 77 1005.9
20260505164705 62 58 0.0 2.0 0.00 0.07 0.01 77 1006.0
20260505164604 62 58 0.0 2.0 0.00 0.07 0.01 77 1005.9
20260505164505 61 76 0.0 2.0 0.00 0.07 0.01 78 1006.0
20260505164405 61 91 0.0 2.0 0.00 0.07 0.01 78 1006.0
20260505164305 61 105 1.0 2.0 0.00 0.07 0.01 80 1006.1
20260505164205 61 172 0.0 2.0 0.00 0.07 0.01 80 1006.1
20260505164104 61 166 0.0 2.0 0.00 0.07 0.01 82 1006.0
20260505164008 60 172 0.0 2.0 0.00 0.07 0.01 82 1006.1
20260505163805 60 192 0.0 2.0 0.00 0.07 0.01 82 1006.0
20260505163704 60 192 0.0 2.0 0.00 0.07 0.01 83 1006.0
20260505163605 60 192 0.0 2.0 0.00 0.07 0.01 83 1006.0
20260505163505 60 192 0.0 2.0 0.00 0.07 0.01 84 1006.0
20260505163404 60 166 0.0 2.0 0.00 0.07 0.01 84 1006.0
20260505163305 60 150 1.0 2.0 0.00 0.07 0.01 85 1006.0
20260505163205 60 123 1.0 2.0 0.00 0.07 0.01 85 1006.1
20260505163006 59 105 0.0 2.0 0.00 0.07 0.01 86 1006.1
20260505162905 59 101 0.0 2.0 0.00 0.07 0.01 86 1006.0
20260505162804 59 91 0.0 2.0 0.00 0.07 0.01 86 1006.0
20260505162705 59 99 0.0 2.0 0.00 0.07 0.01 86 1006.1
20260505162405 59 136 0.0 2.0 0.00 0.07 0.01 85 1006.3
20260505162307 60 163 0.0 2.0 0.00 0.07 0.01 85 1006.2
20260505162204 60 182 0.0 2.0 0.00 0.07 0.01 85 1006.1
20260505162105 60 183 0.0 3.0 0.00 0.07 0.01 85 1006.1
20260505162005 60 190 0.0 3.0 0.00 0.07 0.01 85 1006.1
20260505161904 60 191 0.0 3.0 0.00 0.07 0.01 85 1006.2
20260505161604 60 176 0.0 3.0 0.00 0.07 0.01 85 1006.2
20260505161505 60 176 0.0 3.0 0.00 0.07 0.01 86 1006.1
20260505161405 60 176 0.0 3.0 0.00 0.07 0.01 87 1006.2
20260505161304 60 176 1.0 3.0 0.00 0.07 0.01 86 1006.1
20260505161205 60 176 1.0 3.0 0.00 0.07 0.01 86 1006.3
20260505161105 60 177 1.0 3.0 0.00 0.07 0.01 87 1006.1
20260505161004 60 177 0.0 2.0 0.00 0.07 0.01 87 1006.1
20260505160905 60 177 1.0 2.0 0.00 0.07 0.01 87 1006.2
20260505160805 60 184 1.0 2.0 0.00 0.07 0.01 88 1006.1
20260505160705 60 186 0.0 2.0 0.00 0.07 0.01 88 1006.2
20260505160605 60 190 1.0 2.0 0.00 0.07 0.01 88 1006.1
20260505160504 60 189 0.0 3.0 0.00 0.07 0.01 88 1006.0
20260505160405 60 197 0.0 3.0 0.00 0.07 0.01 87 1006.2
20260505160308 60 212 1.0 3.0 0.00 0.07 0.01 87 1006.1
20260505160204 60 212 0.0 3.0 0.00 0.07 0.01 87 1006.2
20260505153205 59 140 1.0 5.0 0.00 0.07 0.01 84 1006.3
20260505153105 59 130 1.0 5.0 0.00 0.07 0.01 84 1006.3
20260505153005 59 127 2.0 5.0 0.00 0.07 0.01 84 1006.3
20260505152905 59 127 2.0 5.0 0.00 0.07 0.01 84 1006.3
20260505152805 59 127 2.0 5.0 0.00 0.07 0.01 84 1006.1
20260505152605 59 130 3.0 5.0 0.00 0.07 0.01 85 1006.2
20260505152505 59 127 2.0 5.0 0.00 0.07 0.01 85 1006.3
20260505152408 59 131 3.0 5.0 0.00 0.07 0.01 85 1006.3
20260505152305 59 132 1.0 4.0 0.00 0.07 0.01 84 1006.3
20260505152205 59 137 2.0 4.0 0.00 0.07 0.01 83 1006.3
20260505152104 59 143 1.0 4.0 0.00 0.07 0.01 83 1006.3
20260505152005 59 148 1.0 4.0 0.00 0.07 0.01 83 1006.3
20260505151905 59 147 1.0 6.0 0.00 0.07 0.01 84 1006.3
20260505151804 59 143 2.0 6.0 0.00 0.07 0.01 85 1006.3
20260505151705 59 138 1.0 8.0 0.00 0.07 0.01 87 1006.3
20260505151604 59 145 2.0 8.0 0.00 0.07 0.01 88 1006.3
20260505151508 59 145 2.0 8.0 0.00 0.07 0.01 88 1006.4
20260505151304 59 146 2.0 8.0 0.00 0.07 0.01 87 1006.3
20260505151205 60 149 2.0 8.0 0.00 0.07 0.01 87 1006.2
20260505151105 60 147 2.0 8.0 0.00 0.07 0.01 87 1006.3
20260505151005 60 144 3.0 8.0 0.00 0.07 0.01 87 1006.3
20260505150905 60 145 4.0 8.0 0.00 0.07 0.01 86 1006.3
20260505150805 60 147 3.0 8.0 0.00 0.07 0.01 86 1006.3
20260505150705 60 150 4.0 8.0 0.00 0.07 0.01 86 1006.1
20260505150508 60 148 4.0 8.0 0.00 0.07 0.01 86 1006.1
20260505150405 60 149 4.0 8.0 0.00 0.07 0.01 86 1006.1
20260505150305 60 148 2.0 8.0 0.00 0.07 0.01 86 1006.2
20260505150204 60 143 3.0 8.0 0.00 0.07 0.01 85 1006.2
20260505150105 60 144 4.0 8.0 0.00 0.07 0.01 85 1006.2
20260505140605 61 113 2.0 4.0 0.00 0.07 0.01 82 1006.4
20260505140504 61 114 3.0 4.0 0.00 0.07 0.01 82 1006.4
20260505140405 61 109 2.0 4.0 0.00 0.07 0.01 82 1006.3
20260505140305 61 108 2.0 4.0 0.00 0.07 0.01 82 1006.4
20260505140105 61 106 2.0 4.0 0.00 0.07 0.01 82 1006.3
20260505130305 60 16 2.0 8.0 0.01 0.07 0.01 83 1007.2
20260505130208 60 17 1.0 8.0 0.01 0.07 0.01 83 1007.2
20260505130104 60 21 1.0 8.0 0.01 0.07 0.01 83 1007.2
20260505125005 62 30 2.0 8.0 0.01 0.07 0.01 83 1007.2
20260505124905 62 18 3.0 8.0 0.01 0.07 0.01 81 1007.2
20260505124705 62 17 2.0 8.0 0.00 0.06 0.00 80 1007.1
20260505124505 62 22 2.0 8.0 0.00 0.06 0.00 78 1007.2
20260505124408 62 28 3.0 8.0 0.00 0.06 0.00 78 1007.1
20260505124304 62 31 2.0 8.0 0.00 0.06 0.00 78 1007.2
20260505124105 62 24 3.0 8.0 0.00 0.06 0.00 76 1007.1
20260505124005 63 17 1.0 8.0 0.00 0.06 0.00 76 1007.2
20260505123905 63 19 2.0 8.0 0.00 0.06 0.00 75 1007.2
20260505123804 63 26 2.0 6.0 0.00 0.06 0.00 74 1007.1
20260505123705 63 20 2.0 6.0 0.00 0.06 0.00 73 1007.1
20260505123605 63 21 1.0 6.0 0.00 0.06 0.00 73 1007.0
20260505123507 63 15 1.0 6.0 0.00 0.06 0.00 73 1007.0
20260505123305 63 17 1.0 6.0 0.00 0.06 0.00 74 1007.0
20260505123204 63 16 0.0 6.0 0.00 0.06 0.00 74 1007.0
20260505123105 63 20 1.0 6.0 0.00 0.06 0.00 73 1007.0
20260505123005 63 20 2.0 6.0 0.00 0.06 0.00 73 1007.0
20260505122905 63 22 2.0 6.0 0.00 0.06 0.00 73 1007.1
20260505122805 63 17 3.0 6.0 0.00 0.06 0.00 73 1007.0
20260505122705 63 18 2.0 6.0 0.00 0.06 0.00 73 1007.0
20260505122507 64 21 2.0 6.0 0.00 0.06 0.00 72 1006.9
20260505122204 64 6 3.0 8.0 0.00 0.06 0.00 71 1006.9
20260505122105 64 359 2.0 8.0 0.00 0.06 0.00 72 1006.9
20260505122005 64 3 3.0 8.0 0.00 0.06 0.00 71 1006.9
20260505121905 64 359 2.0 8.0 0.00 0.06 0.00 72 1006.9
20260505121704 64 13 1.0 8.0 0.00 0.06 0.00 72 1006.9
20260505121605 64 20 1.0 8.0 0.00 0.06 0.00 72 1006.9
20260505121508 64 19 2.0 8.0 0.00 0.06 0.00 72 1006.9
20260505121405 64 21 3.0 8.0 0.00 0.06 0.00 72 1006.9
20260505121305 64 24 2.0 6.0 0.00 0.06 0.00 72 1006.9
20260505121105 64 27 2.0 6.0 0.00 0.06 0.00 71 1006.9
20260505121005 64 28 2.0 6.0 0.00 0.06 0.00 71 1006.9
20260505120905 64 34 2.0 6.0 0.00 0.06 0.00 71 1006.9
20260505120705 64 25 2.0 5.0 0.00 0.06 0.00 71 1006.9
20260505120505 64 9 2.0 5.0 0.00 0.06 0.00 72 1006.8
20260505120405 64 359 1.0 5.0 0.00 0.06 0.00 72 1006.8
20260505120205 64 352 1.0 5.0 0.00 0.06 0.00 72 1006.8
20260505120104 64 348 2.0 5.0 0.00 0.06 0.00 72 1007.0
20260505120005 64 343 2.0 5.0 0.00 0.06 0.00 71 1006.9
20260505115705 64 333 1.0 5.0 0.00 0.06 0.00 74 1006.9
20260505115507 64 330 3.0 5.0 0.00 0.06 0.00 74 1006.7
20260505115305 64 344 2.0 4.0 0.00 0.06 0.00 74 1006.6
20260505115205 64 333 2.0 4.0 0.00 0.06 0.00 75 1006.8
20260505115105 64 339 2.0 4.0 0.00 0.06 0.00 73 1006.7
20260505115005 64 338 1.0 4.0 0.00 0.06 0.00 73 1006.7
20260505114805 64 333 2.0 4.0 0.00 0.06 0.00 73 1006.8
20260505114705 65 335 0.0 4.0 0.00 0.06 0.00 73 1006.7
20260505114608 65 349 2.0 4.0 0.00 0.06 0.00 73 1006.9
20260505114504 65 358 0.0 4.0 0.00 0.06 0.00 72 1006.7
20260505114405 65 359 1.0 4.0 0.00 0.06 0.00 73 1006.7
20260505114205 65 10 0.0 4.0 0.00 0.06 0.00 72 1006.6
20260505114105 65 12 1.0 4.0 0.00 0.06 0.00 72 1006.7
20260505114004 65 11 0.0 4.0 0.00 0.06 0.00 72 1006.6
20260505113905 65 9 0.0 4.0 0.00 0.06 0.00 72 1006.8
20260505113705 65 11 1.0 4.0 0.00 0.06 0.00 71 1006.8
20260505113608 65 5 1.0 4.0 0.00 0.06 0.00 71 1006.8
20260505113504 65 358 2.0 4.0 0.00 0.06 0.00 71 1006.7
20260505113404 65 353 1.0 3.0 0.00 0.06 0.00 71 1006.7
20260505113305 65 348 0.0 3.0 0.00 0.06 0.00 71 1006.7
20260505113205 65 344 1.0 3.0 0.00 0.06 0.00 71 1006.6
20260505113104 65 338 1.0 3.0 0.00 0.06 0.00 71 1006.7
20260505113005 65 336 1.0 4.0 0.00 0.06 0.00 71 1006.6
20260505112905 65 341 0.0 4.0 0.00 0.06 0.00 70 1006.7
20260505112805 65 340 1.0 4.0 0.00 0.06 0.00 70 1006.7
20260505112705 65 335 1.0 4.0 0.00 0.06 0.00 70 1006.6
20260505112607 65 330 1.0 4.0 0.00 0.06 0.00 70 1006.6
20260505112504 65 327 0.0 4.0 0.00 0.06 0.00 70 1006.7
20260505112405 65 324 1.0 4.0 0.00 0.06 0.00 70 1006.6
20260505112305 65 323 1.0 7.0 0.00 0.06 0.00 70 1006.8
20260505112205 65 321 0.0 7.0 0.00 0.06 0.00 70 1006.5
20260505112004 65 313 1.0 7.0 0.00 0.06 0.00 70 1006.7
20260505111805 65 301 0.0 7.0 0.00 0.06 0.00 71 1006.6
20260505111705 65 296 2.0 7.0 0.00 0.06 0.00 71 1006.6
20260505111608 65 295 1.0 7.0 0.00 0.06 0.00 70 1006.6
20260505111504 65 290 0.0 7.0 0.00 0.06 0.00 72 1006.6
20260505111405 65 286 4.0 7.0 0.00 0.06 0.00 71 1006.6
20260505111305 65 281 4.0 6.0 0.00 0.06 0.00 71 1006.6
20260505111205 65 273 4.0 6.0 0.00 0.06 0.00 71 1006.5
20260505111105 65 274 2.0 4.0 0.00 0.06 0.00 72 1006.5
20260505111005 65 275 2.0 4.0 0.00 0.06 0.00 72 1006.5
20260505110905 65 280 2.0 4.0 0.00 0.06 0.00 72 1006.5
20260505110805 65 287 3.0 4.0 0.00 0.06 0.00 71 1006.7
20260505110705 65 295 2.0 4.0 0.00 0.06 0.00 71 1006.5
20260505110607 65 299 2.0 4.0 0.00 0.06 0.00 71 1006.6
20260505110505 65 311 0.0 4.0 0.00 0.06 0.00 71 1006.5
20260505110405 66 316 0.0 4.0 0.00 0.06 0.00 71 1006.6
20260505110305 66 321 1.0 4.0 0.00 0.06 0.00 71 1006.7
20260505110205 66 329 2.0 4.0 0.00 0.06 0.00 71 1006.5
20260505102204 66 1 0.0 4.0 0.00 0.06 0.00 69 1006.9
20260505102105 66 1 2.0 4.0 0.00 0.06 0.00 68 1006.9
20260505102005 66 1 1.0 2.0 0.00 0.06 0.00 66 1006.9
20260505101905 66 1 1.0 2.0 0.00 0.06 0.00 68 1007.0
20260505101805 66 1 0.0 2.0 0.00 0.06 0.00 67 1007.0
20260505101704 66 1 1.0 2.0 0.00 0.06 0.00 67 1006.9
20260505101505 66 350 0.0 3.0 0.00 0.06 0.00 68 1006.9
20260505101405 66 344 0.0 3.0 0.00 0.06 0.00 69 1007.0
20260505101305 66 345 0.0 3.0 0.00 0.06 0.00 68 1007.0
20260505101205 66 341 0.0 3.0 0.00 0.06 0.00 67 1007.0
20260505101105 66 336 0.0 3.0 0.00 0.06 0.00 66 1007.0
20260505100905 65 323 0.0 3.0 0.00 0.06 0.00 65 1007.0
20260505100804 65 314 0.0 3.0 0.00 0.06 0.00 66 1007.0
20260505100705 65 296 0.0 4.0 0.00 0.06 0.00 64 1007.0
20260505100606 65 282 0.0 7.0 0.00 0.06 0.00 64 1007.1
20260505100405 65 280 1.0 7.0 0.00 0.06 0.00 66 1006.9
20260505100304 65 274 0.0 7.0 0.00 0.06 0.00 65 1007.2
20260505100205 65 271 1.0 7.0 0.00 0.06 0.00 67 1007.1
20260505100105 65 271 2.0 7.0 0.00 0.06 0.00 69 1006.9
20260505100004 65 268 2.0 7.0 0.00 0.06 0.00 71 1007.1
20260505095905 65 266 1.0 7.0 0.00 0.06 0.00 72 1007.1
20260505095805 66 270 3.0 7.0 0.00 0.06 0.00 71 1007.1
20260505095705 66 281 2.0 7.0 0.00 0.06 0.00 72 1007.1
20260505095605 66 294 3.0 7.0 0.00 0.06 0.00 70 1007.1
20260505095508 66 309 2.0 6.0 0.00 0.06 0.00 70 1007.2
20260505095405 66 321 2.0 4.0 0.00 0.06 0.00 70 1007.1
20260505095305 66 333 2.0 4.0 0.00 0.06 0.00 70 1007.0
20260505095205 66 345 2.0 4.0 0.00 0.06 0.00 70 1007.2
20260505095105 66 353 1.0 3.0 0.00 0.06 0.00 71 1007.2
20260505095004 66 331 0.0 4.0 0.00 0.06 0.00 71 1007.2
20260505094905 66 318 0.0 4.0 0.00 0.06 0.00 70 1007.3
20260505094805 66 313 2.0 4.0 0.00 0.06 0.00 71 1007.2
20260505094704 66 302 2.0 6.0 0.00 0.06 0.00 70 1007.2
20260505094607 66 293 1.0 6.0 0.00 0.06 0.00 71 1007.3
20260505094505 66 287 0.0 6.0 0.00 0.06 0.00 71 1007.2
20260505094405 66 282 0.0 6.0 0.00 0.06 0.00 71 1007.2
20260505094305 66 279 2.0 6.0 0.00 0.06 0.00 70 1007.1
20260505094104 66 273 2.0 6.0 0.00 0.06 0.00 72 1007.2
20260505094005 66 273 3.0 6.0 0.00 0.06 0.00 71 1007.1
20260505093904 65 271 1.0 6.0 0.00 0.06 0.00 73 1007.2
20260505093806 65 270 0.0 6.0 0.00 0.06 0.00 73 1007.2
20260505093707 65 270 3.0 6.0 0.00 0.06 0.00 71 1007.3
20260505093604 65 270 0.0 4.0 0.00 0.06 0.00 70 1007.3
20260505093505 65 270 0.0 4.0 0.00 0.06 0.00 72 1007.3
20260505093405 65 270 0.0 4.0 0.00 0.06 0.00 71 1007.2
20260505093305 65 270 2.0 4.0 0.00 0.06 0.00 72 1007.3
20260505093205 65 274 0.0 4.0 0.00 0.06 0.00 71 1007.2
20260505093104 65 279 0.0 4.0 0.00 0.06 0.00 70 1007.4
20260505093005 65 282 0.0 4.0 0.00 0.06 0.00 73 1007.4
20260505092905 65 281 1.0 4.0 0.00 0.06 0.00 74 1007.3
20260505092705 65 283 2.0 4.0 0.00 0.06 0.00 72 1007.3
20260505092608 65 288 0.0 3.0 0.00 0.06 0.00 73 1007.4
20260505092505 65 289 1.0 3.0 0.00 0.06 0.00 72 1007.3
20260505092404 64 289 1.0 3.0 0.00 0.06 0.00 74 1007.5
20260505092305 64 289 0.0 3.0 0.00 0.06 0.00 73 1007.4
20260505092204 64 285 2.0 3.0 0.00 0.06 0.00 73 1007.3
20260505092105 64 279 2.0 3.0 0.00 0.06 0.00 73 1007.4
20260505091905 64 275 1.0 3.0 0.00 0.06 0.00 73 1007.2
20260505091805 64 275 0.0 3.0 0.00 0.06 0.00 74 1007.4
20260505091704 64 274 2.0 3.0 0.00 0.06 0.00 73 1007.3
20260505091608 64 270 0.0 3.0 0.00 0.06 0.00 74 1007.4
20260505091304 63 275 0.0 3.0 0.00 0.06 0.00 75 1007.6
20260505091105 63 275 1.0 3.0 0.00 0.06 0.00 75 1007.5
20260505091005 63 274 2.0 3.0 0.00 0.06 0.00 75 1007.4
20260505090905 63 267 1.0 4.0 0.00 0.06 0.00 75 1007.5
20260505090705 63 254 1.0 4.0 0.00 0.06 0.00 75 1007.5
20260505090607 63 252 2.0 4.0 0.00 0.06 0.00 75 1007.5
20260505090505 63 246 0.0 4.0 0.00 0.06 0.00 76 1007.3
20260505090405 63 243 0.0 4.0 0.00 0.06 0.00 76 1007.4
20260505090304 63 243 0.0 4.0 0.00 0.06 0.00 77 1007.6
20260505090205 62 244 0.0 4.0 0.00 0.06 0.00 76 1007.5
20260505090105 62 243 2.0 4.0 0.00 0.06 0.00 77 1007.6
20260505090005 62 242 1.0 4.0 0.00 0.06 0.00 77 1007.6
20260505085905 62 253 2.0 4.0 0.00 0.06 0.00 77 1007.6
20260505085804 63 256 2.0 3.0 0.00 0.06 0.00 77 1007.5
20260505085708 63 259 0.0 3.0 0.00 0.06 0.00 78 1007.6
20260505085605 63 259 0.0 3.0 0.00 0.06 0.00 77 1007.6
20260505085405 63 263 1.0 3.0 0.00 0.06 0.00 76 1007.6
20260505085305 63 262 1.0 3.0 0.00 0.06 0.00 76 1007.5
20260505085205 63 260 0.0 3.0 0.00 0.06 0.00 75 1007.5
20260505085105 63 261 0.0 3.0 0.00 0.06 0.00 75 1007.5
20260505084805 63 263 2.0 3.0 0.00 0.06 0.00 76 1007.6
20260505084704 64 270 0.0 3.0 0.00 0.06 0.00 75 1007.6
20260505084608 64 270 0.0 3.0 0.00 0.06 0.00 77 1007.5
20260505084505 64 270 0.0 3.0 0.00 0.06 0.00 76 1007.6
20260505084305 64 270 0.0 3.0 0.00 0.06 0.00 77 1007.6
20260505084205 64 277 0.0 4.0 0.00 0.06 0.00 77 1007.7
20260505084105 64 282 2.0 4.0 0.00 0.06 0.00 76 1007.6
20260505084005 64 288 1.0 4.0 0.00 0.06 0.00 75 1007.6
20260505083904 64 288 0.0 4.0 0.00 0.06 0.00 75 1007.6
20260505083805 64 287 0.0 4.0 0.00 0.06 0.00 75 1007.5
20260505083607 64 293 2.0 4.0 0.00 0.06 0.00 74 1007.6
20260505083505 64 298 2.0 4.0 0.00 0.06 0.00 75 1007.5
20260505083405 64 300 1.0 4.0 0.00 0.06 0.00 75 1007.6
20260505083205 65 297 2.0 4.0 0.00 0.06 0.00 74 1007.5
20260505083105 65 293 2.0 4.0 0.00 0.06 0.00 75 1007.7
20260505083005 65 281 1.0 4.0 0.00 0.06 0.00 74 1007.6
20260505082905 65 276 2.0 4.0 0.00 0.06 0.00 76 1007.6
20260505082805 65 276 1.0 4.0 0.00 0.06 0.00 76 1007.6
20260505082705 65 274 0.0 4.0 0.00 0.06 0.00 76 1007.5
20260505082608 65 270 2.0 4.0 0.00 0.06 0.00 75 1007.6
20260505082505 65 266 2.0 4.0 0.00 0.06 0.00 74 1007.6
20260505082405 65 262 2.0 4.0 0.00 0.06 0.00 74 1007.5
20260505082305 65 261 1.0 4.0 0.00 0.06 0.00 72 1007.6
20260505082205 65 262 0.0 4.0 0.00 0.06 0.00 73 1007.6
20260505082005 64 267 2.0 4.0 0.00 0.06 0.00 73 1007.6
20260505081905 64 270 2.0 4.0 0.00 0.06 0.00 73 1007.4
20260505081806 64 270 2.0 4.0 0.00 0.06 0.00 73 1007.5
20260505081608 64 267 3.0 4.0 0.00 0.06 0.00 72 1007.5
20260505081505 64 260 2.0 3.0 0.00 0.06 0.00 73 1007.6
20260505081404 63 259 0.0 3.0 0.00 0.06 0.00 74 1007.6
20260505081305 63 259 1.0 3.0 0.00 0.06 0.00 74 1007.6
20260505081205 63 260 1.0 4.0 0.00 0.06 0.00 76 1007.6
20260505081104 62 260 1.0 4.0 0.00 0.06 0.00 75 1007.6
20260505081006 62 261 1.0 4.0 0.00 0.06 0.00 75 1007.6
20260505080905 62 262 1.0 4.0 0.00 0.06 0.00 77 1007.6
20260505080704 62 263 0.0 4.0 0.00 0.06 0.00 77 1007.6
20260505080609 61 266 0.0 4.0 0.00 0.06 0.00 77 1007.6
20260505080505 61 270 0.0 4.0 0.00 0.06 0.00 78 1007.6
20260505080405 61 270 0.0 4.0 0.00 0.06 0.00 78 1007.6
20260505080305 61 270 2.0 4.0 0.00 0.06 0.00 78 1007.7
20260505080204 61 270 2.0 4.0 0.00 0.06 0.00 78 1007.6
20260505080105 61 270 2.0 4.0 0.00 0.06 0.00 79 1007.6
20260505080006 61 270 1.0 4.0 0.00 0.06 0.00 80 1007.5
20260505075905 60 270 1.0 2.0 0.00 0.06 0.00 80 1007.5
20260505075504 60 270 0.0 2.0 0.00 0.06 0.00 80 1007.7
20260505075406 60 270 1.0 2.0 0.00 0.06 0.00 80 1007.7
20260505075305 60 270 0.0 3.0 0.00 0.06 0.00 81 1007.7
20260505075205 60 282 1.0 4.0 0.00 0.06 0.00 80 1007.7
20260505075104 60 281 1.0 4.0 0.00 0.06 0.00 80 1007.9
20260505075005 60 281 0.0 4.0 0.00 0.06 0.00 80 1007.7
20260505074804 60 280 1.0 4.0 0.00 0.06 0.00 80 1007.7
20260505074705 60 276 1.0 4.0 0.00 0.06 0.00 80 1007.7
20260505074605 60 270 1.0 4.0 0.00 0.06 0.00 80 1007.7
20260505074405 60 268 0.0 4.0 0.00 0.06 0.00 80 1007.7
20260505074305 60 268 1.0 4.0 0.00 0.06 0.00 80 1007.8
20260505074205 60 258 2.0 3.0 0.00 0.06 0.00 81 1007.7
20260505074005 60 258 1.0 3.0 0.00 0.06 0.00 81 1007.9
20260505073905 60 260 0.0 3.0 0.00 0.06 0.00 81 1007.7
20260505073805 60 264 0.0 3.0 0.00 0.06 0.00 81 1007.9
20260505073608 60 276 2.0 4.0 0.00 0.06 0.00 80 1007.8
20260505073504 60 278 0.0 4.0 0.00 0.06 0.00 80 1007.9
20260505073405 60 278 1.0 4.0 0.00 0.06 0.00 80 1007.9
20260505073205 60 279 0.0 4.0 0.00 0.06 0.00 80 1007.7
20260505073105 60 278 1.0 4.0 0.00 0.06 0.00 80 1007.9
20260505073006 60 278 2.0 4.0 0.00 0.06 0.00 80 1007.9
20260505072905 60 278 2.0 4.0 0.00 0.06 0.00 80 1007.8
20260505072805 60 276 2.0 4.0 0.00 0.06 0.00 80 1007.9
20260505072705 60 270 2.0 4.0 0.00 0.06 0.00 79 1007.9
20260505072608 60 270 0.0 4.0 0.00 0.06 0.00 80 1007.8
20260505072404 60 270 0.0 4.0 0.00 0.06 0.00 79 1007.8
20260505072305 60 268 0.0 4.0 0.00 0.06 0.00 79 1007.9
20260505072205 60 267 2.0 4.0 0.00 0.06 0.00 79 1007.9
20260505072105 60 265 2.0 4.0 0.00 0.06 0.00 79 1007.9
20260505072005 60 264 2.0 4.0 0.00 0.06 0.00 79 1007.9
20260505071904 60 264 2.0 4.0 0.00 0.06 0.00 79 1007.8
20260505071805 60 262 2.0 4.0 0.00 0.06 0.00 79 1007.9
20260505071705 60 257 2.0 4.0 0.00 0.06 0.00 79 1007.8
20260505071608 60 256 1.0 4.0 0.00 0.06 0.00 81 1007.9
20260505071505 60 252 0.0 4.0 0.00 0.06 0.00 81 1007.9
20260505071305 60 256 0.0 4.0 0.00 0.06 0.00 82 1007.9
20260505071205 60 254 1.0 4.0 0.00 0.06 0.00 82 1008.0
20260505071104 60 249 0.0 4.0 0.00 0.06 0.00 82 1007.9
20260505070905 59 244 2.0 4.0 0.00 0.06 0.00 82 1007.9
20260505070806 59 240 2.0 4.0 0.00 0.06 0.00 81 1007.9
20260505070705 59 242 1.0 4.0 0.00 0.06 0.00 81 1007.9
20260505070609 59 238 0.0 4.0 0.00 0.06 0.00 82 1007.9
20260505070505 59 240 2.0 4.0 0.00 0.06 0.00 81 1007.9
20260505070405 59 223 0.0 3.0 0.00 0.06 0.00 82 1008.0
20260505070305 59 212 1.0 3.0 0.00 0.06 0.00 82 1008.0
20260505070005 59 225 0.0 3.0 0.00 0.06 0.00 84 1008.0
20260505065904 59 225 0.0 3.0 0.00 0.06 0.00 84 1008.1
20260505065805 59 225 0.0 3.0 0.00 0.06 0.00 85 1008.2
20260505065705 59 223 0.0 3.0 0.00 0.06 0.00 86 1008.0
20260505065607 59 221 0.0 3.0 0.00 0.06 0.00 86 1008.0
20260505065505 59 221 0.0 3.0 0.00 0.06 0.00 86 1008.1
20260505065405 59 221 0.0 3.0 0.00 0.06 0.00 85 1008.0
20260505065305 59 216 0.0 3.0 0.00 0.06 0.00 85 1008.0
20260505065205 59 208 0.0 3.0 0.00 0.06 0.00 85 1008.0
20260505065105 59 201 2.0 3.0 0.00 0.06 0.00 84 1008.1
20260505064905 59 184 0.0 2.0 0.00 0.06 0.00 86 1008.1
20260505064705 59 181 0.0 2.0 0.00 0.06 0.00 86 1008.0
20260505064607 59 181 0.0 2.0 0.00 0.06 0.00 86 1008.2
20260505064505 58 188 0.0 2.0 0.00 0.06 0.00 85 1008.2
20260505064404 58 197 0.0 2.0 0.00 0.06 0.00 85 1008.2
20260505064305 58 198 0.0 2.0 0.00 0.06 0.00 85 1008.1
20260505064105 58 200 0.0 2.0 0.00 0.06 0.00 85 1008.1
20260505063904 58 205 1.0 2.0 0.00 0.06 0.00 85 1008.1
20260505063805 58 213 0.0 2.0 0.00 0.06 0.00 86 1008.1
20260505063708 58 221 0.0 2.0 0.00 0.06 0.00 87 1008.1
20260505063605 58 219 0.0 2.0 0.00 0.06 0.00 87 1008.1
20260505063505 58 205 0.0 2.0 0.00 0.06 0.00 87 1008.1
20260505063405 57 183 0.0 2.0 0.00 0.06 0.00 87 1008.1
20260505063305 57 181 0.0 2.0 0.00 0.06 0.00 90 1008.1
20260505063204 57 181 0.0 2.0 0.00 0.06 0.00 90 1008.1
20260505063105 57 181 0.0 2.0 0.00 0.06 0.00 90 1008.2
20260505063005 57 214 0.0 3.0 0.00 0.06 0.00 90 1008.1
20260505062905 57 216 0.0 3.0 0.00 0.06 0.00 90 1008.1
20260505062808 57 210 0.0 3.0 0.00 0.06 0.00 90 1008.1
20260505062705 57 212 0.0 3.0 0.00 0.06 0.00 90 1008.1
20260505062605 57 211 0.0 3.0 0.00 0.06 0.00 90 1008.1
20260505062505 57 206 0.0 3.0 0.00 0.06 0.00 90 1008.1
20260505062305 57 227 0.0 3.0 0.00 0.06 0.00 90 1008.1
20260505062206 57 229 0.0 3.0 0.00 0.06 0.00 90 1008.1
20260505062105 57 237 2.0 4.0 0.00 0.06 0.00 90 1008.0
20260505062004 57 222 0.0 4.0 0.00 0.06 0.00 90 1008.1
20260505061907 56 207 0.0 4.0 0.00 0.06 0.00 90 1008.1
20260505061805 56 199 0.0 4.0 0.00 0.06 0.00 90 1008.1
20260505061705 56 178 0.0 4.0 0.00 0.06 0.00 91 1008.0
20260505061605 56 172 0.0 4.0 0.00 0.06 0.00 91 1008.1
20260505061504 56 164 0.0 4.0 0.00 0.06 0.00 91 1008.1
20260505061404 56 153 1.0 4.0 0.00 0.06 0.00 92 1008.2
20260505061305 56 144 0.0 4.0 0.00 0.06 0.00 92 1008.1
20260505061105 56 136 2.0 4.0 0.00 0.06 0.00 92 1008.2
20260505061006 56 135 2.0 4.0 0.00 0.06 0.00 92 1008.1
20260505060907 56 135 2.0 4.0 0.00 0.06 0.00 92 1008.1
20260505060805 56 135 2.0 4.0 0.00 0.06 0.00 92 1008.1
20260505060606 56 135 1.0 3.0 0.00 0.06 0.00 92 1008.2
20260505060505 56 135 0.0 3.0 0.00 0.06 0.00 92 1008.1
20260505060405 56 135 1.0 3.0 0.00 0.06 0.00 92 1008.1
20260505060305 55 135 0.0 2.0 0.00 0.06 0.00 92 1008.1
20260505060205 55 135 0.0 2.0 0.00 0.06 0.00 92 1008.2
20260505060104 55 135 2.0 2.0 0.00 0.06 0.00 92 1008.2
20260505060008 55 135 1.0 2.0 0.00 0.06 0.00 93 1008.2
20260505055904 55 135 1.0 2.0 0.00 0.06 0.00 93 1008.2
20260505055705 55 135 0.0 2.0 0.00 0.06 0.00 94 1008.1
20260505055605 54 135 0.0 2.0 0.00 0.06 0.00 94 1008.1
20260505055505 54 135 0.0 2.0 0.00 0.06 0.00 94 1008.3
20260505055404 54 135 0.0 2.0 0.00 0.06 0.00 94 1008.2
20260505055305 54 135 0.0 2.0 0.00 0.06 0.00 95 1008.2
20260505055205 54 135 0.0 2.0 0.00 0.06 0.00 95 1008.3
20260505055008 53 135 0.0 2.0 0.00 0.06 0.00 94 1008.2
20260505054905 53 135 0.0 2.0 0.00 0.06 0.00 94 1008.1
20260505054804 53 135 0.0 2.0 0.00 0.06 0.00 95 1008.2
20260505054705 53 135 0.0 2.0 0.00 0.06 0.00 94 1008.3
20260505054605 53 135 0.0 2.0 0.00 0.06 0.00 94 1008.2
20260505054505 52 128 0.0 2.0 0.00 0.06 0.00 95 1008.2
20260505054305 52 115 0.0 2.0 0.00 0.06 0.00 95 1008.2
20260505054105 51 121 0.0 2.0 0.00 0.06 0.00 96 1008.3
20260505054008 51 118 0.0 2.0 0.00 0.06 0.00 97 1008.3
20260505053904 51 118 0.0 2.0 0.00 0.06 0.00 97 1008.3
20260505053805 51 118 0.0 2.0 0.00 0.06 0.00 98 1008.2
20260505053705 51 118 0.0 2.0 0.00 0.06 0.00 98 1008.1
20260505053604 51 118 0.0 2.0 0.00 0.06 0.00 98 1008.4
20260505053505 51 120 0.0 2.0 0.00 0.06 0.00 98 1008.3
20260505053405 51 126 0.0 2.0 0.00 0.06 0.00 99 1008.2
20260505053305 50 135 1.0 2.0 0.00 0.06 0.00 99 1008.3
20260505053205 50 135 1.0 2.0 0.00 0.06 0.00 99 1008.2
20260505053005 50 0 0.0 0.0 0.00 0.06 0.00 99 1008.3
20260505052907 49 0 0.0 0.0 0.00 0.06 0.00 99 1008.2
20260505052805 49 0 0.0 0.0 0.00 0.06 0.00 99 1008.4
20260505052705 49 0 0.0 0.0 0.00 0.06 0.00 99 1008.2
20260505052604 49 0 0.0 0.0 0.00 0.06 0.00 99 1008.2
20260505052305 49 0 0.0 0.0 0.00 0.06 0.00 99 1008.2
20260505052205 48 0 0.0 0.0 0.00 0.06 0.00 99 1008.1
20260505052104 48 0 0.0 0.0 0.00 0.06 0.00 99 1008.2
20260505051908 48 0 0.0 0.0 0.00 0.06 0.00 99 1008.3
20260505051705 48 0 0.0 0.0 0.00 0.06 0.00 99 1008.4
20260505051605 47 0 0.0 0.0 0.00 0.06 0.00 99 1008.2
20260505051505 47 0 0.0 0.0 0.00 0.06 0.00 99 1008.2
20260505051405 47 0 0.0 0.0 0.00 0.06 0.00 99 1008.3
20260505051305 47 0 0.0 0.0 0.00 0.06 0.00 99 1008.3
20260505051205 47 0 0.0 0.0 0.00 0.06 0.00 99 1008.3
20260505051105 47 0 0.0 0.0 0.00 0.06 0.00 99 1008.2
20260505051005 47 0 0.0 0.0 0.00 0.06 0.00 99 1008.3
20260505050907 47 0 0.0 0.0 0.00 0.06 0.00 99 1008.2
20260505050805 46 0 0.0 0.0 0.00 0.06 0.00 99 1008.3
20260505050705 46 0 0.0 0.0 0.00 0.06 0.00 99 1008.2
20260505050604 46 0 0.0 0.0 0.00 0.06 0.00 99 1008.3
20260505050505 46 0 0.0 0.0 0.00 0.06 0.00 99 1008.1
20260505050405 46 0 0.0 0.0 0.00 0.06 0.00 99 1008.3
20260505050304 46 0 0.0 0.0 0.00 0.06 0.00 99 1008.3
20260505050205 46 0 0.0 0.0 0.00 0.06 0.00 99 1008.2
20260505050105 46 0 0.0 0.0 0.00 0.06 0.00 99 1008.2
20260505041704 42 90 0.0 2.0 0.00 0.06 0.00 99 1008.1
20260505041605 42 90 0.0 2.0 0.00 0.06 0.00 99 1008.3
20260505041505 42 90 0.0 2.0 0.00 0.06 0.00 99 1008.4
20260505041405 42 90 0.0 2.0 0.00 0.06 0.00 99 1008.3
20260505041305 42 0 0.0 0.0 0.00 0.06 0.00 99 1008.4
20260505041205 42 0 0.0 0.0 0.00 0.06 0.00 99 1008.3
20260505041008 42 0 0.0 0.0 0.00 0.06 0.00 99 1008.4
20260505040904 42 0 0.0 0.0 0.00 0.06 0.00 99 1008.3
20260505040805 42 0 0.0 0.0 0.00 0.06 0.00 99 1008.3
20260505040705 42 0 0.0 0.0 0.00 0.06 0.00 99 1008.3
20260505040605 42 0 0.0 0.0 0.00 0.06 0.00 99 1008.3
20260505040505 42 0 0.0 0.0 0.00 0.06 0.00 99 1008.3
20260505040405 42 0 0.0 0.0 0.00 0.06 0.00 99 1008.5
20260505040305 42 0 0.0 0.0 0.00 0.06 0.00 99 1008.4
20260505040205 42 0 0.0 0.0 0.00 0.06 0.00 99 1008.3
20260505040108 42 0 0.0 0.0 0.00 0.06 0.00 99 1008.3
20260505040005 42 0 0.0 0.0 0.00 0.06 0.00 99 1008.1
20260505035904 42 0 0.0 0.0 0.00 0.06 0.00 99 1008.1
20260505035805 42 0 0.0 0.0 0.00 0.06 0.00 99 1008.2
20260505035705 42 0 0.0 0.0 0.00 0.06 0.00 99 1008.3
20260505035604 42 0 0.0 0.0 0.00 0.06 0.00 99 1008.2
20260505035505 42 0 0.0 0.0 0.00 0.06 0.00 99 1008.3
20260505035406 42 0 0.0 0.0 0.00 0.06 0.00 99 1008.2
20260505035305 42 0 0.0 0.0 0.00 0.06 0.00 99 1008.3
20260505035204 42 0 0.0 0.0 0.00 0.06 0.00 99 1008.3
20260505035108 42 0 0.0 0.0 0.00 0.06 0.00 99 1008.3
20260505035005 42 0 0.0 0.0 0.00 0.06 0.00 99 1008.4
20260505034905 42 0 0.0 0.0 0.00 0.06 0.00 99 1008.4
20260505034805 42 0 0.0 0.0 0.00 0.06 0.00 99 1008.4
20260505034704 42 0 0.0 0.0 0.00 0.06 0.00 99 1008.4
20260505034605 42 0 0.0 0.0 0.00 0.06 0.00 99 1008.4
20260505034505 42 0 0.0 0.0 0.00 0.06 0.00 99 1008.5
20260505034405 42 0 0.0 0.0 0.00 0.06 0.00 99 1008.5
20260505034305 42 0 0.0 0.0 0.00 0.06 0.00 99 1008.3
20260505034204 42 0 0.0 0.0 0.00 0.06 0.00 99 1008.5
20260505034108 42 0 0.0 0.0 0.00 0.06 0.00 99 1008.3
20260505034005 42 0 0.0 0.0 0.00 0.06 0.00 99 1008.4
20260505033905 42 135 0.0 2.0 0.00 0.06 0.00 99 1008.5
20260505033805 42 122 0.0 2.0 0.00 0.06 0.00 99 1008.5
20260505033704 42 115 0.0 2.0 0.00 0.06 0.00 99 1008.4
20260505033605 42 115 0.0 2.0 0.00 0.06 0.00 99 1008.4
20260505033505 42 115 0.0 2.0 0.00 0.06 0.00 99 1008.4
20260505033404 42 115 0.0 2.0 0.00 0.06 0.00 99 1008.4